Location: Caltech
(34.1382°N, 118.1253°W)
Time: 02:10:22
(UTC-07:00)

UOSAT-12 - Visible Passes

Search period start: 02 September 2014 00:00
Search period end: 12 September 2014 00:00
Orbit: 594 x 664 km, 64.6° (Epoch: 01 September)

Date Brightness Start Highest point End Pass type
(mag) Time Alt. Az. Time Alt. Az. Time Alt. Az.
02 Sep 9.5 03:47:11 16° ESE 03:47:46 16° ESE 03:50:35 10° ENE visible
02 Sep 7.6 05:24:34 19° WSW 05:27:30 45° WNW 05:32:00 10° NNE visible
03 Sep 8.2 04:07:50 38° ESE 04:08:01 38° ESE 04:12:21 10° NE visible
03 Sep 8.7 05:45:13 12° W 05:48:17 21° NW 05:51:50 10° N visible
04 Sep 7.0 04:28:24 85° W 04:28:27 85° WNW 04:33:09 10° NNE visible
05 Sep 9.9 03:11:31 15° ENE 03:11:31 15° ENE 03:12:37 10° ENE visible
05 Sep 7.9 04:48:52 36° WNW 04:49:04 36° NW 04:53:24 10° NNE visible
06 Sep 9.2 03:31:55 25° NE 03:31:55 25° NE 03:34:01 10° NE visible
06 Sep 8.9 05:09:16 17° WNW 05:09:55 17° NW 05:13:02 10° N visible
07 Sep 8.8 03:52:15 29° NNE 03:52:15 29° NNE 03:54:39 10° NNE visible
08 Sep 9.0 04:12:32 22° NNW 04:12:32 22° NNW 04:14:46 10° N visible
09 Sep 10.3 02:55:25 11° NE 02:55:25 11° NE 02:55:37 10° NE visible
09 Sep 9.4 04:32:46 13° NNW 04:32:46 13° NNW 04:34:07 10° NNW visible
10 Sep 10.0 03:15:36 13° NNE 03:15:36 13° NNE 03:16:07 10° NNE visible
11 Sep 10.0 03:35:44 12° N 03:35:44 12° N 03:36:05 10° N visible
